This demonstration page uses our WeatherBlox Daily Observations layout. Learn more.

Left ArrowRight Arrow

39.95238, -75.16362

Hourly Observations for June 1, 2022

Temp ( °F °C ) Dew Point ( °F °C ) Humidity (%) Winds ( mph kmh ) Pressure ( in mb ) Visibility ( mi km ) Precip ( " mm )
12:54 am 00:54 Partly Cloudy 80 26.7 67 19.4 64 64 WSW 9 15 29.92 1013 10 16 0.00 0.00
1:54 am 01:54 Partly Cloudy 79 26.1 68 20 69 69 WSW 6 9 29.92 1013 10 16 0.00 0.00
2:54 am 02:54 Mostly Clear 78 25.6 67 19.4 69 69 WSW 6 9 29.91 1013 10 16 0.00 0.00
3:54 am 03:54 Mostly Clear 80 26.7 65 18.3 60 60 NW 5 7 29.91 1013 10 16 0.00 0.00
4:54 am 04:54 Clear 78 25.6 63 17.2 60 60 N 3 6 29.91 1013 10 16 0.00 0.00
5:54 am 05:54 Partly Cloudy 71 21.7 64 17.8 79 79 NE 7 11 29.93 1014 10 16 0.00 0.00
6:54 am 06:54 Partly Cloudy 70 21.1 62 16.7 76 76 NE 9 15 29.95 1014 10 16 0.00 0.00
7:54 am 07:54 Partly Cloudy 69 20.6 62 16.7 78 78 E 13 20 29.96 1015 10 16 0.00 0.00
8:54 am 08:54 Partly Cloudy 69 20.6 61 16.1 76 76 E 12 19 29.96 1015 10 16 0.00 0.00
9:54 am 09:54 Partly Cloudy 72 22.2 62 16.7 71 71 ENE 9 15 29.96 1015 10 16 0.00 0.00
10:54 am 10:54 Partly Cloudy 75 23.9 63 17.2 66 66 E 9 15 29.96 1015 10 16 0.00 0.00
11:54 am 11:54 Partly Cloudy 76 24.4 62 16.7 62 62 E 7 11 29.94 1014 10 16 0.00 0.00
12:54 pm 12:54 Mostly Cloudy 80 26.7 65 18.3 60 60 E 5 7 29.92 1013 10 16 0.00 0.00
1:54 pm 13:54 Mostly Cloudy 83 28.3 66 18.9 57 57 ENE 7 11 29.90 1012 10 16 0.00 0.00
2:54 pm 14:54 Mostly Cloudy 85 29.4 67 19.4 55 55 ESE 5 7 29.87 1011 10 16 0.00 0.00
3:54 pm 15:54 Mostly Cloudy 86 30 69 20.6 57 57 ESE 5 7 29.84 1011 10 16 0.00 0.00
4:54 pm 16:54 Mostly Cloudy 87 30.6 70 21.1 57 57 SE 9 15 29.83 1010 10 16 0.00 0.00
5:54 pm 17:54 Mostly Cloudy 85 29.4 70 21.1 61 61 SSE 8 13 29.82 1010 10 16 0.00 0.00
6:54 pm 18:54 Mostly Cloudy 81 27.2 68 20 65 65 ESE 12 19 29.81 1010 10 16 0.00 0.00
7:54 pm 19:54 Mostly Cloudy 75 23.9 65 18.3 71 71 ESE 13 20 29.82 1010 10 16 0.00 0.00
8:54 pm 20:54 Mostly Cloudy 71 21.7 63 17.2 76 76 ESE 13 20 29.83 1010 10 16 0.00 0.00
9:50 pm 21:50 Cloudy 70 21 63 17 78 78 E 10 17 29.86 1011 10 16 0.00 0.00
9:54 pm 21:54 Cloudy 69 20.6 63 17.2 81 81 E 10 17 29.85 1011 10 16 0.00 0.00
10:03 pm 22:03 Cloudy 69 20.6 63 17.2 81 81 E 12 19 29.86 1011 10 16 0.00 0.00
10:54 pm 22:54 Cloudy 67 19.4 63 17.2 87 87 E 13 20 29.87 1012 10 16 0.00 0.00
11:10 pm 23:10 Cloudy 67 19.4 62 16.7 84 84 NE 12 19 29.89 1012 10 16 0.00 0.00
11:47 pm 23:47 Cloudy 65 18.3 61 16.1 87 87 ENE 10 17 29.88 1012 10 16 0.00 0.00
11:54 pm 23:54 Cloudy 64 17.8 60 15.6 87 87 ENE 14 22 29.87 1011 10 16 0.00 0.00

Powered by AerisWeather